Time,TemperatureF,DewpointF,PressureIn,WindDirection,WindDirectionDegrees,WindSpeedMPH,WindSpeedGustMPH,Humidity,HourlyPrecipIn,Conditions,Clouds,dailyrainin,SoftwareType,DateUTC
2013-04-28 00:00:00,46.9,26.6,30.21,SSE,164,0.0,0.0,45,0.00,,,0.00,VWS V14.01,2013-04-28 04:00:00,
2013-04-28 00:01:00,46.9,27.2,30.21,SSE,164,0.0,0.0,46,0.00,,,0.00,VWS V14.01,2013-04-28 04:01:00,
2013-04-28 00:02:00,46.9,27.2,30.21,SSE,164,0.0,0.0,46,0.00,,,0.00,VWS V14.01,2013-04-28 04:02:00,
2013-04-28 00:03:00,46.9,27.2,30.21,SSE,164,0.0,0.0,46,0.00,,,0.00,VWS V14.01,2013-04-28 04:03:00,
2013-04-28 00:04:00,46.9,27.2,30.21,SSE,164,0.0,0.0,46,0.00,,,0.00,VWS V14.01,2013-04-28 04:04:00,
2013-04-28 00:05:00,46.9,27.2,30.21,SSE,164,0.0,0.0,46,0.00,,,0.00,VWS V14.01,2013-04-28 04:05:00,
2013-04-28 00:06:00,46.9,27.2,30.21,SSE,164,0.0,0.0,46,0.00,,,0.00,VWS V14.01,2013-04-28 04:06:00,
2013-04-28 00:07:00,46.9,27.2,30.21,SSE,164,0.0,0.0,46,0.00,,,0.00,VWS V14.01,2013-04-28 04:07:00,
2013-04-28 00:08:00,46.9,27.2,30.21,SSE,164,0.0,0.0,46,0.00,,,0.00,VWS V14.01,2013-04-28 04:08:00,
2013-04-28 00:09:00,46.9,27.2,30.21,SSE,164,0.0,0.0,46,0.00,,,0.00,VWS V14.01,2013-04-28 04:09:00,
2013-04-28 00:10:00,46.9,27.2,30.21,SSE,164,0.0,0.0,46,0.00,,,0.00,VWS V14.01,2013-04-28 04:10:00,
2013-04-28 00:11:00,46.9,27.2,30.21,SSE,164,0.0,0.0,46,0.00,,,0.00,VWS V14.01,2013-04-28 04:11:00,
2013-04-28 00:12:00,46.9,27.2,30.21,SSE,164,0.0,0.0,46,0.00,,,0.00,VWS V14.01,2013-04-28 04:12:00,
2013-04-28 00:13:00,46.9,27.2,30.21,SSE,164,0.0,0.0,46,0.00,,,0.00,VWS V14.01,2013-04-28 04:13:00,
2013-04-28 00:14:00,46.9,27.2,30.21,SSE,164,0.0,0.0,46,0.00,,,0.00,VWS V14.01,2013-04-28 04:14:00,
2013-04-28 00:15:00,46.7,27.0,30.21,SSE,164,0.0,0.0,46,0.00,,,0.00,VWS V14.01,2013-04-28 04:15:00,
2013-04-28 00:16:00,46.7,27.0,30.21,SSE,164,0.0,0.0,46,0.00,,,0.00,VWS V14.01,2013-04-28 04:16:00,
2013-04-28 00:17:00,46.7,27.0,30.21,SSE,164,0.0,0.0,46,0.00,,,0.00,VWS V14.01,2013-04-28 04:17:00,
2013-04-28 00:18:00,46.5,26.9,30.21,SSE,164,0.0,0.0,46,0.00,,,0.00,VWS V14.01,2013-04-28 04:18:00,
2013-04-28 00:19:00,46.5,26.9,30.21,SSE,164,0.0,0.0,46,0.00,,,0.00,VWS V14.01,2013-04-28 04:19:00,
2013-04-28 00:20:00,46.5,26.9,30.21,SSE,164,0.0,0.0,46,0.00,,,0.00,VWS V14.01,2013-04-28 04:20:00,
2013-04-28 00:21:00,46.5,26.9,30.21,SSE,164,0.0,0.0,46,0.00,,,0.00,VWS V14.01,2013-04-28 04:21:00,
2013-04-28 00:22:00,46.5,26.9,30.21,SSE,164,0.0,0.0,46,0.00,,,0.00,VWS V14.01,2013-04-28 04:22:00,
2013-04-28 00:23:00,46.3,26.7,30.21,SSE,164,0.0,0.0,46,0.00,,,0.00,VWS V14.01,2013-04-28 04:23:00,
2013-04-28 00:24:00,46.3,26.7,30.21,SSE,164,0.0,0.0,46,0.00,,,0.00,VWS V14.01,2013-04-28 04:24:00,
2013-04-28 00:25:00,46.3,26.7,30.21,SSE,164,0.0,0.0,46,0.00,,,0.00,VWS V14.01,2013-04-28 04:25:00,
2013-04-28 00:26:00,46.1,26.5,30.21,SSE,164,0.0,0.0,46,0.00,,,0.00,VWS V14.01,2013-04-28 04:26:00,
2013-04-28 00:27:00,46.1,26.5,30.21,SSE,164,0.0,0.0,46,0.00,,,0.00,VWS V14.01,2013-04-28 04:27:00,
2013-04-28 09:48:00,64.9,31.9,30.21,SSE,148,2.7,2.7,29,0.00,,,0.00,VWS V14.01,2013-04-28 13:48:00,
2013-04-28 09:53:00,64.9,31.9,30.21,East,93,0.0,0.0,29,0.00,,,0.00,VWS V14.01,2013-04-28 13:53:00,
2013-04-28 09:58:00,65.6,31.6,30.21,SW,223,0.0,0.0,28,0.00,,,0.00,VWS V14.01,2013-04-28 13:58:00,
2013-04-28 10:03:00,67.0,32.9,30.21,NW,319,0.0,0.0,28,0.00,,,0.00,VWS V14.01,2013-04-28 14:03:00,
2013-04-28 10:08:00,67.9,32.7,30.21,SSW,195,0.0,0.0,27,0.00,,,0.00,VWS V14.01,2013-04-28 14:08:00,
2013-04-28 10:13:00,68.1,32.9,30.21,SW,224,0.0,0.0,27,0.00,,,0.00,VWS V14.01,2013-04-28 14:13:00,
2013-04-28 10:19:00,68.1,32.9,30.21,ESE,104,0.0,0.0,27,0.00,,,0.00,VWS V14.01,2013-04-28 14:19:00,
2013-04-28 10:24:00,68.5,33.2,30.21,WSW,239,4.0,4.0,27,0.00,,,0.00,VWS V14.01,2013-04-28 14:24:00,
2013-04-28 10:29:00,69.0,32.7,30.21,WNW,293,0.0,3.6,26,0.00,,,0.00,VWS V14.01,2013-04-28 14:29:00,
2013-04-28 10:34:00,69.0,33.7,30.21,SE,139,2.7,3.1,27,0.00,,,0.00,VWS V14.01,2013-04-28 14:34:00,
2013-04-28 10:39:00,69.5,33.2,30.21,SW,223,2.7,5.4,26,0.00,,,0.00,VWS V14.01,2013-04-28 14:39:00,
2013-04-28 10:44:00,69.5,33.2,30.21,SW,230,0.0,0.0,26,0.00,,,0.00,VWS V14.01,2013-04-28 14:44:00,
2013-04-28 10:49:00,69.4,33.0,30.21,NE,47,0.0,0.0,26,0.00,,,0.00,VWS V14.01,2013-04-28 14:49:00,
2013-04-28 10:54:00,69.2,32.9,30.21,ENE,65,3.6,3.6,26,0.00,,,0.00,VWS V14.01,2013-04-28 14:54:00,
2013-04-28 10:59:00,69.0,33.7,30.21,ESE,107,0.0,0.0,27,0.00,,,0.00,VWS V14.01,2013-04-28 14:59:00,
2013-04-28 11:04:00,69.4,34.0,30.21,SE,140,3.1,7.2,27,0.00,,,0.00,VWS V14.01,2013-04-28 15:04:00,
2013-04-28 11:09:00,69.5,34.1,30.21,SE,136,5.4,5.4,27,0.00,,,0.00,VWS V14.01,2013-04-28 15:09:00,
2013-04-28 11:14:00,69.9,34.4,30.21,ENE,60,2.2,2.7,27,0.00,,,0.00,VWS V14.01,2013-04-28 15:14:00,
2013-04-28 11:19:00,70.4,34.9,30.21,ESE,119,3.1,3.1,27,0.00,,,0.00,VWS V14.01,2013-04-28 15:19:00,
2013-04-28 11:24:00,70.3,34.7,30.21,East,97,3.6,3.6,27,0.00,,,0.00,VWS V14.01,2013-04-28 15:24:00,
2013-04-28 11:29:00,70.3,34.7,30.21,SW,218,3.1,3.1,27,0.00,,,0.00,VWS V14.01,2013-04-28 15:29:00,
2013-04-28 11:34:00,70.8,35.2,30.21,SSW,203,2.7,2.7,27,0.00,,,0.00,VWS V14.01,2013-04-28 15:34:00,
2013-04-28 11:39:00,71.2,35.5,30.18,South,185,3.6,3.6,27,0.00,,,0.00,VWS V14.01,2013-04-28 15:39:00,
2013-04-28 11:44:00,70.6,35.0,30.18,SW,226,0.0,2.2,27,0.00,,,0.00,VWS V14.01,2013-04-28 15:44:00,
2013-04-28 11:49:00,70.8,34.2,30.18,SSE,166,0.0,2.7,26,0.00,,,0.00,VWS V14.01,2013-04-28 15:49:00,
2013-04-28 11:54:00,70.8,34.2,30.18,SSE,154,4.9,4.9,26,0.00,,,0.00,VWS V14.01,2013-04-28 15:54:00,
2013-04-28 11:59:00,71.0,34.4,30.18,East,84,4.9,5.8,26,0.00,,,0.00,VWS V14.01,2013-04-28 15:59:00,
2013-04-28 12:04:00,71.0,34.4,30.18,WSW,253,0.0,3.1,26,0.00,,,0.00,VWS V14.01,2013-04-28 16:04:00,
2013-04-28 12:09:00,71.3,34.7,30.18,SSE,152,3.1,4.0,26,0.00,,,0.00,VWS V14.01,2013-04-28 16:09:00,
2013-04-28 12:14:00,71.5,34.9,30.18,WSW,256,0.0,2.7,26,0.00,,,0.00,VWS V14.01,2013-04-28 16:14:00,
2013-04-28 12:19:00,71.7,32.0,30.18,ESE,114,2.2,4.9,23,0.00,,,0.00,VWS V14.01,2013-04-28 16:19:00,
2013-04-28 12:24:00,71.5,31.8,30.18,SSW,192,0.0,0.0,23,0.00,,,0.00,VWS V14.01,2013-04-28 16:24:00,
2013-04-28 12:29:00,71.7,29.7,30.18,SSE,158,3.6,7.6,21,0.00,,,0.00,VWS V14.01,2013-04-28 16:29:00,
2013-04-28 12:35:00,70.3,26.1,30.18,ESE,120,3.1,10.1,19,0.00,,,0.00,VWS V14.01,2013-04-28 16:35:00,
2013-04-28 12:40:00,70.1,28.4,30.18,ESE,112,4.0,4.0,21,0.00,,,0.00,VWS V14.01,2013-04-28 16:40:00,
2013-04-28 12:45:00,70.6,26.4,30.18,ESE,119,0.0,2.7,19,0.00,,,0.00,VWS V14.01,2013-04-28 16:45:00,
2013-04-28 12:50:00,70.8,25.2,30.18,South,184,5.8,8.7,18,0.00,,,0.00,VWS V14.01,2013-04-28 16:50:00,
2013-04-28 12:55:00,70.8,25.2,30.18,SE,139,2.2,5.4,18,0.00,,,0.00,VWS V14.01,2013-04-28 16:55:00,
2013-04-28 13:00:00,71.2,25.5,30.18,East,79,3.6,4.0,18,0.00,,,0.00,VWS V14.01,2013-04-28 17:00:00,
2013-04-28 13:05:00,72.1,26.3,30.18,SSE,153,5.8,6.3,18,0.00,,,0.00,VWS V14.01,2013-04-28 17:05:00,
2013-04-28 13:10:00,71.5,25.8,30.18,SW,220,3.1,5.8,18,0.00,,,0.00,VWS V14.01,2013-04-28 17:10:00,
2013-04-28 13:15:00,71.3,25.7,30.18,SSW,202,5.4,5.4,18,0.00,,,0.00,VWS V14.01,2013-04-28 17:15:00,
2013-04-28 13:20:00,70.1,26.0,30.18,SSW,194,2.2,5.8,19,0.00,,,0.00,VWS V14.01,2013-04-28 17:20:00,
2013-04-28 13:25:00,69.5,25.5,30.18,SE,140,5.8,13.2,19,0.00,,,0.00,VWS V14.01,2013-04-28 17:25:00,
2013-04-28 13:30:00,69.4,25.4,30.18,SSE,152,3.1,5.8,19,0.00,,,0.00,VWS V14.01,2013-04-28 17:30:00,
2013-04-28 13:35:00,69.2,25.2,30.18,SE,128,0.0,0.0,19,0.00,,,0.00,VWS V14.01,2013-04-28 17:35:00,
2013-04-28 13:40:00,69.5,25.5,30.18,SE,124,4.0,4.0,19,0.00,,,0.00,VWS V14.01,2013-04-28 17:40:00,
2013-04-28 13:45:00,69.9,25.8,30.18,SSE,160,5.4,5.4,19,0.00,,,0.00,VWS V14.01,2013-04-28 17:45:00,
2013-04-28 13:50:00,69.0,25.1,30.18,SSW,205,8.3,8.3,19,0.00,,,0.00,VWS V14.01,2013-04-28 17:50:00,
2013-04-28 13:55:00,68.6,24.8,30.18,South,176,8.1,8.7,19,0.00,,,0.00,VWS V14.01,2013-04-28 17:55:00,
2013-04-28 14:00:00,68.1,24.3,30.18,SW,227,4.0,4.0,19,0.00,,,0.00,VWS V14.01,2013-04-28 18:00:00,
2013-04-28 14:05:00,67.7,24.0,30.18,SW,219,4.0,8.1,19,0.00,,,0.00,VWS V14.01,2013-04-28 18:05:00,
2013-04-28 14:10:00,68.1,24.3,30.18,SSE,165,2.7,3.6,19,0.00,,,0.00,VWS V14.01,2013-04-28 18:10:00,
2013-04-28 14:15:00,69.0,25.1,30.18,South,170,5.4,7.6,19,0.00,,,0.00,VWS V14.01,2013-04-28 18:15:00,
2013-04-28 14:20:00,69.9,25.8,30.18,SW,222,3.6,4.0,19,0.00,,,0.00,VWS V14.01,2013-04-28 18:20:00,
2013-04-28 14:26:00,69.9,25.8,30.18,South,174,5.8,5.8,19,0.00,,,0.00,VWS V14.01,2013-04-28 18:26:00,
2013-04-28 14:31:00,69.5,25.5,30.18,SSW,206,5.4,5.4,19,0.00,,,0.00,VWS V14.01,2013-04-28 18:31:00,
2013-04-28 14:36:00,69.2,25.2,30.18,South,186,3.6,10.5,19,0.00,,,0.00,VWS V14.01,2013-04-28 18:36:00,
2013-04-28 14:41:00,69.4,25.4,30.18,East,87,0.0,5.4,19,0.00,,,0.00,VWS V14.01,2013-04-28 18:41:00,
2013-04-28 14:46:00,69.7,25.6,30.18,East,99,4.0,4.9,19,0.00,,,0.00,VWS V14.01,2013-04-28 18:46:00,
2013-04-28 14:51:00,69.5,25.5,30.18,South,173,5.8,5.8,19,0.00,,,0.00,VWS V14.01,2013-04-28 18:51:00,
2013-04-28 14:56:00,69.2,25.2,30.15,SSE,148,4.0,5.4,19,0.00,,,0.00,VWS V14.01,2013-04-28 18:56:00,
2013-04-28 15:01:00,68.8,24.9,30.15,SSE,148,5.4,5.4,19,0.00,,,0.00,VWS V14.01,2013-04-28 19:01:00,
2013-04-28 15:06:00,68.6,24.8,30.15,SSE,153,4.9,4.9,19,0.00,,,0.00,VWS V14.01,2013-04-28 19:06:00,
2013-04-28 15:11:00,68.8,24.9,30.15,SW,232,5.8,10.5,19,0.00,,,0.00,VWS V14.01,2013-04-28 19:11:00,
2013-04-28 15:16:00,68.5,24.6,30.15,ESE,121,4.9,5.8,19,0.00,,,0.00,VWS V14.01,2013-04-28 19:16:00,
2013-04-28 15:21:00,68.1,24.3,30.15,South,178,3.1,4.0,19,0.00,,,0.00,VWS V14.01,2013-04-28 19:21:00,
2013-04-28 15:26:00,67.4,23.7,30.15,SSW,196,3.6,4.9,19,0.00,,,0.00,VWS V14.01,2013-04-28 19:26:00,
2013-04-28 15:31:00,66.8,23.3,30.15,SSW,202,4.0,4.0,19,0.00,,,0.00,VWS V14.01,2013-04-28 19:31:00,
2013-04-28 15:36:00,66.8,23.3,30.15,SSW,194,5.4,5.4,19,0.00,,,0.00,VWS V14.01,2013-04-28 19:36:00,
2013-04-28 15:41:00,66.8,23.3,30.15,South,172,5.4,5.4,19,0.00,,,0.00,VWS V14.01,2013-04-28 19:41:00,
2013-04-28 15:46:00,67.0,23.4,30.15,SSE,150,5.8,5.8,19,0.00,,,0.00,VWS V14.01,2013-04-28 19:46:00,
2013-04-28 15:51:00,67.0,23.4,30.15,SE,131,3.1,5.4,19,0.00,,,0.00,VWS V14.01,2013-04-28 19:51:00,
2013-04-28 15:56:00,66.8,23.3,30.15,SSE,160,5.4,5.4,19,0.00,,,0.00,VWS V14.01,2013-04-28 19:56:00,
2013-04-28 16:01:00,66.1,22.7,30.15,SSE,165,2.2,4.0,19,0.00,,,0.00,VWS V14.01,2013-04-28 20:01:00,
2013-04-28 16:06:00,66.1,22.7,30.15,SSE,148,0.0,3.1,19,0.00,,,0.00,VWS V14.01,2013-04-28 20:06:00,
2013-04-28 16:11:00,65.9,22.5,30.15,SSE,161,6.7,6.7,19,0.00,,,0.00,VWS V14.01,2013-04-28 20:11:00,
2013-04-28 16:16:00,65.8,22.4,30.15,SSE,150,3.6,8.3,19,0.00,,,0.00,VWS V14.01,2013-04-28 20:16:00,
2013-04-28 16:21:00,65.6,22.2,30.15,South,190,6.3,9.6,19,0.00,,,0.00,VWS V14.01,2013-04-28 20:21:00,
2013-04-28 16:26:00,65.4,22.1,30.15,SSE,150,5.8,5.8,19,0.00,,,0.00,VWS V14.01,2013-04-28 20:26:00,
2013-04-28 16:31:00,65.6,22.2,30.15,South,177,4.9,4.9,19,0.00,,,0.00,VWS V14.01,2013-04-28 20:31:00,
2013-04-28 16:36:00,65.4,22.1,30.15,South,182,5.8,5.8,19,0.00,,,0.00,VWS V14.01,2013-04-28 20:36:00,
2013-04-28 16:42:00,65.2,23.2,30.15,SE,136,4.0,4.9,20,0.00,,,0.00,VWS V14.01,2013-04-28 20:42:00,
2013-04-28 16:47:00,64.9,22.9,30.15,South,170,3.6,5.4,20,0.00,,,0.00,VWS V14.01,2013-04-28 20:47:00,
2013-04-28 16:52:00,64.5,22.6,30.15,SSE,157,2.7,7.6,20,0.00,,,0.00,VWS V14.01,2013-04-28 20:52:00,
2013-04-28 16:57:00,64.3,22.4,30.15,South,183,2.7,8.7,20,0.00,,,0.00,VWS V14.01,2013-04-28 20:57:00,
2013-04-28 17:02:00,64.3,22.4,30.15,South,189,4.9,8.1,20,0.00,,,0.00,VWS V14.01,2013-04-28 21:02:00,
2013-04-28 17:07:00,64.5,22.6,30.15,SSE,163,2.7,3.6,20,0.00,,,0.00,VWS V14.01,2013-04-28 21:07:00,
2013-04-28 17:12:00,64.1,22.3,30.15,SSE,163,3.1,5.4,20,0.00,,,0.00,VWS V14.01,2013-04-28 21:12:00,
2013-04-28 17:17:00,64.0,22.1,30.15,SSE,158,0.0,0.0,20,0.00,,,0.00,VWS V14.01,2013-04-28 21:17:00,
2013-04-28 17:22:00,63.8,22.0,30.15,SSE,152,4.0,5.8,20,0.00,,,0.00,VWS V14.01,2013-04-28 21:22:00,
2013-04-28 17:27:00,63.6,21.8,30.15,South,171,5.4,5.4,20,0.00,,,0.00,VWS V14.01,2013-04-28 21:27:00,
2013-04-28 17:32:00,63.2,21.5,30.15,SSW,195,5.4,5.4,20,0.00,,,0.00,VWS V14.01,2013-04-28 21:32:00,
2013-04-28 17:37:00,62.9,21.2,30.12,South,172,3.6,3.6,20,0.00,,,0.00,VWS V14.01,2013-04-28 21:37:00,
2013-04-28 17:42:00,62.7,21.1,30.12,South,175,4.0,4.0,20,0.00,,,0.00,VWS V14.01,2013-04-28 21:42:00,
2013-04-28 17:47:00,62.5,20.9,30.12,South,171,8.1,8.1,20,0.00,,,0.00,VWS V14.01,2013-04-28 21:47:00,
2013-04-28 17:52:00,62.2,20.6,30.12,South,183,0.0,0.0,20,0.00,,,0.00,VWS V14.01,2013-04-28 21:52:00,
2013-04-28 17:57:00,62.0,20.5,30.12,SSW,209,3.1,3.1,20,0.00,,,0.00,VWS V14.01,2013-04-28 21:57:00,
2013-04-28 18:02:00,61.6,21.3,30.12,South,181,5.4,5.4,21,0.00,,,0.00,VWS V14.01,2013-04-28 22:02:00,
2013-04-28 18:07:00,61.4,21.2,30.12,SSE,155,0.0,4.0,21,0.00,,,0.00,VWS V14.01,2013-04-28 22:07:00,
2013-04-28 18:12:00,61.3,21.0,30.12,SSW,209,3.6,3.6,21,0.00,,,0.00,VWS V14.01,2013-04-28 22:12:00,
2013-04-28 18:17:00,61.1,20.9,30.12,SSE,153,2.2,6.3,21,0.00,,,0.00,VWS V14.01,2013-04-28 22:17:00,
2013-04-28 18:22:00,60.7,20.6,30.12,SSE,153,2.2,5.4,21,0.00,,,0.00,VWS V14.01,2013-04-28 22:22:00,
2013-04-28 18:27:00,60.5,20.4,30.12,South,173,4.0,4.0,21,0.00,,,0.00,VWS V14.01,2013-04-28 22:27:00,
2013-04-28 18:32:00,60.4,20.3,30.12,SSE,156,0.0,0.0,21,0.00,,,0.00,VWS V14.01,2013-04-28 22:32:00,
2013-04-28 18:38:00,60.2,20.1,30.12,SSE,163,3.1,4.9,21,0.00,,,0.00,VWS V14.01,2013-04-28 22:38:00,
2013-04-28 18:43:00,60.0,20.0,30.12,SSE,167,0.0,4.9,21,0.00,,,0.00,VWS V14.01,2013-04-28 22:43:00,
2013-04-28 18:48:00,59.8,19.8,30.12,SE,141,0.0,2.7,21,0.00,,,0.00,VWS V14.01,2013-04-28 22:48:00,
2013-04-28 18:53:00,59.6,19.7,30.12,SSE,154,0.0,4.5,21,0.00,,,0.00,VWS V14.01,2013-04-28 22:53:00,
2013-04-28 18:58:00,59.5,19.5,30.12,SSE,163,0.0,0.0,21,0.00,,,0.00,VWS V14.01,2013-04-28 22:58:00,
2013-04-28 19:03:00,59.3,19.4,30.12,SSW,198,4.9,5.4,21,0.00,,,0.00,VWS V14.01,2013-04-28 23:03:00,
2013-04-28 19:08:00,59.1,19.2,30.12,South,171,3.6,3.6,21,0.00,,,0.00,VWS V14.01,2013-04-28 23:08:00,
2013-04-28 19:13:00,58.9,19.1,30.12,SSE,150,2.2,2.2,21,0.00,,,0.00,VWS V14.01,2013-04-28 23:13:00,
2013-04-28 19:18:00,58.9,19.1,30.12,South,169,2.7,3.6,21,0.00,,,0.00,VWS V14.01,2013-04-28 23:18:00,
2013-04-28 19:23:00,58.7,18.9,30.12,SSE,168,3.1,3.1,21,0.00,,,0.00,VWS V14.01,2013-04-28 23:23:00,
2013-04-28 19:28:00,58.6,18.8,30.12,SSE,154,3.6,3.6,21,0.00,,,0.00,VWS V14.01,2013-04-28 23:28:00,
2013-04-28 19:33:00,58.4,18.6,30.12,South,172,0.0,0.0,21,0.00,,,0.00,VWS V14.01,2013-04-28 23:33:00,
2013-04-28 19:38:00,58.2,18.5,30.12,South,175,0.0,0.0,21,0.00,,,0.00,VWS V14.01,2013-04-28 23:38:00,
2013-04-28 19:43:00,58.2,18.5,30.12,South,191,2.7,2.7,21,0.00,,,0.00,VWS V14.01,2013-04-28 23:43:00,
2013-04-28 19:48:00,58.0,18.3,30.12,South,176,0.0,0.0,21,0.00,,,0.00,VWS V14.01,2013-04-28 23:48:00,
2013-04-28 19:53:00,57.8,18.2,30.12,South,182,0.0,0.0,21,0.00,,,0.00,VWS V14.01,2013-04-28 23:53:00,
2013-04-28 19:58:00,57.7,21.1,30.12,South,187,0.0,0.0,24,0.00,,,0.00,VWS V14.01,2013-04-28 23:58:00,
2013-04-28 20:03:00,57.5,21.0,30.12,South,181,0.0,0.0,24,0.00,,,0.00,VWS V14.01,2013-04-29 00:03:00,
2013-04-28 20:08:00,57.3,20.8,30.12,South,191,4.0,4.5,24,0.00,,,0.00,VWS V14.01,2013-04-29 00:08:00,
2013-04-28 20:13:00,57.3,20.8,30.12,South,180,3.6,3.6,24,0.00,,,0.00,VWS V14.01,2013-04-29 00:13:00,
2013-04-28 20:18:00,56.9,20.5,30.12,South,180,0.0,0.0,24,0.00,,,0.00,VWS V14.01,2013-04-29 00:18:00,
2013-04-28 20:23:00,56.9,22.4,30.12,South,181,0.0,0.0,26,0.00,,,0.00,VWS V14.01,2013-04-29 00:23:00,
2013-04-28 20:28:00,56.8,24.9,30.12,South,181,0.0,0.0,29,0.00,,,0.00,VWS V14.01,2013-04-29 00:28:00,
2013-04-28 20:33:00,56.6,24.7,30.12,South,181,0.0,0.0,29,0.00,,,0.00,VWS V14.01,2013-04-29 00:33:00,
2013-04-28 20:38:00,56.4,24.6,30.12,South,189,0.0,0.0,29,0.00,,,0.00,VWS V14.01,2013-04-29 00:38:00,
2013-04-28 20:43:00,56.2,25.2,30.12,South,189,0.0,0.0,30,0.00,,,0.00,VWS V14.01,2013-04-29 00:43:00,
2013-04-28 20:49:00,56.2,25.2,30.12,South,189,0.0,0.0,30,0.00,,,0.00,VWS V14.01,2013-04-29 00:49:00,
2013-04-28 20:54:00,56.0,25.9,30.12,South,189,0.0,0.0,31,0.00,,,0.00,VWS V14.01,2013-04-29 00:54:00,
2013-04-28 20:59:00,56.0,26.6,30.12,South,189,0.0,0.0,32,0.00,,,0.00,VWS V14.01,2013-04-29 00:59:00,
2013-04-28 21:04:00,56.0,27.4,30.12,South,189,0.0,0.0,33,0.00,,,0.00,VWS V14.01,2013-04-29 01:04:00,
2013-04-28 21:09:00,56.0,28.1,30.12,South,189,0.0,0.0,34,0.00,,,0.00,VWS V14.01,2013-04-29 01:09:00,
2013-04-28 21:14:00,55.9,28.6,30.12,South,189,0.0,0.0,35,0.00,,,0.00,VWS V14.01,2013-04-29 01:14:00,
2013-04-28 21:19:00,55.9,28.6,30.12,South,189,0.0,0.0,35,0.00,,,0.00,VWS V14.01,2013-04-29 01:19:00,
2013-04-28 21:24:00,55.9,30.6,30.12,South,189,0.0,0.0,38,0.00,,,0.00,VWS V14.01,2013-04-29 01:24:00,
2013-04-28 21:29:00,55.9,31.3,30.12,South,189,0.0,0.0,39,0.00,,,0.00,VWS V14.01,2013-04-29 01:29:00,
2013-04-28 21:34:00,55.9,31.9,30.12,South,189,0.0,0.0,40,0.00,,,0.00,VWS V14.01,2013-04-29 01:34:00,
2013-04-28 21:39:00,55.9,31.9,30.12,South,189,0.0,0.0,40,0.00,,,0.00,VWS V14.01,2013-04-29 01:39:00,
2013-04-28 21:44:00,55.9,31.9,30.12,South,189,0.0,0.0,40,0.00,,,0.00,VWS V14.01,2013-04-29 01:44:00,
2013-04-28 21:49:00,55.7,32.4,30.12,South,189,0.0,0.0,41,0.00,,,0.00,VWS V14.01,2013-04-29 01:49:00,
2013-04-28 21:54:00,55.7,32.4,30.12,South,189,0.0,0.0,41,0.00,,,0.00,VWS V14.01,2013-04-29 01:54:00,
2013-04-28 21:59:00,55.9,33.1,30.12,South,189,0.0,0.0,42,0.00,,,0.00,VWS V14.01,2013-04-29 01:59:00,
2013-04-28 22:04:00,55.9,33.1,30.12,South,189,0.0,0.0,42,0.00,,,0.00,VWS V14.01,2013-04-29 02:04:00,
2013-04-28 22:09:00,55.9,33.7,30.12,South,189,0.0,0.0,43,0.00,,,0.00,VWS V14.01,2013-04-29 02:09:00,
2013-04-28 22:14:00,55.9,34.3,30.12,South,190,2.7,3.1,44,0.00,,,0.00,VWS V14.01,2013-04-29 02:14:00,
2013-04-28 22:19:00,56.0,34.5,30.12,South,184,0.0,4.0,44,0.00,,,0.00,VWS V14.01,2013-04-29 02:19:00,
2013-04-28 22:24:00,56.0,35.0,30.12,South,184,0.0,0.0,45,0.00,,,0.00,VWS V14.01,2013-04-29 02:24:00,
2013-04-28 22:29:00,56.0,35.6,30.12,South,172,0.0,0.0,46,0.00,,,0.00,VWS V14.01,2013-04-29 02:29:00,
2013-04-28 22:34:00,56.0,36.1,30.12,SE,141,0.0,3.1,47,0.00,,,0.00,VWS V14.01,2013-04-29 02:34:00,
2013-04-28 22:39:00,56.0,36.1,30.12,SSE,153,3.1,3.1,47,0.00,,,0.00,VWS V14.01,2013-04-29 02:39:00,
2013-04-28 22:44:00,56.0,36.6,30.12,SSW,201,0.0,3.6,48,0.00,,,0.00,VWS V14.01,2013-04-29 02:44:00,
2013-04-28 22:49:00,56.0,37.2,30.12,South,188,3.1,3.1,49,0.00,,,0.00,VWS V14.01,2013-04-29 02:49:00,
2013-04-28 22:54:00,56.2,37.3,30.12,South,171,0.0,0.0,49,0.00,,,0.00,VWS V14.01,2013-04-29 02:54:00,
2013-04-28 23:00:00,56.2,37.8,30.12,SSW,195,3.6,3.6,50,0.00,,,0.00,VWS V14.01,2013-04-29 03:00:00,
2013-04-28 23:05:00,56.4,38.0,30.12,SSE,167,0.0,4.0,50,0.00,,,0.00,VWS V14.01,2013-04-29 03:05:00,
2013-04-28 23:10:00,56.4,38.0,30.12,SSE,152,0.0,0.0,50,0.00,,,0.00,VWS V14.01,2013-04-29 03:10:00,
2013-04-28 23:15:00,56.6,38.2,30.12,South,180,0.0,0.0,50,0.00,,,0.00,VWS V14.01,2013-04-29 03:15:00,
2013-04-28 23:20:00,56.6,38.2,30.12,SSW,197,0.0,0.0,50,0.00,,,0.00,VWS V14.01,2013-04-29 03:20:00,
2013-04-28 23:25:00,56.8,38.3,30.12,South,184,0.0,3.1,50,0.00,,,0.00,VWS V14.01,2013-04-29 03:25:00,
2013-04-28 23:30:00,56.8,38.3,30.12,South,179,0.0,0.0,50,0.00,,,0.00,VWS V14.01,2013-04-29 03:30:00,
2013-04-28 23:35:00,56.8,38.3,30.12,SSW,200,0.0,2.7,50,0.00,,,0.00,VWS V14.01,2013-04-29 03:35:00,
2013-04-28 23:40:00,56.9,38.5,30.12,South,176,0.0,0.0,50,0.00,,,0.00,VWS V14.01,2013-04-29 03:40:00,
2013-04-28 23:45:00,56.9,38.5,30.12,ESE,122,4.0,4.0,50,0.00,,,0.00,VWS V14.01,2013-04-29 03:45:00,
2013-04-28 23:50:00,56.9,38.5,30.12,SSE,156,0.0,2.2,50,0.00,,,0.00,VWS V14.01,2013-04-29 03:50:00,
2013-04-28 23:55:00,57.1,38.7,30.12,South,186,0.0,0.0,50,0.00,,,0.00,VWS V14.01,2013-04-29 03:55:00,